| time (UTC) | temp F | wind direction | speed MPH | gust MPH | rain 1hr in | rain 24hr in | rain mn in | humidity % | barometer mb |
| 20260506211511 | 73 | 274 | 5.0 | 0.0 | 0.00 | 0.00 | 0.00 | 41 | 1012.2 |
| 20260506204602 | 72 | 302 | 4.0 | 0.0 | 0.00 | 0.00 | 0.00 | 40 | 1012.4 |
| 20260506203057 | 73 | 278 | 4.0 | 0.0 | 0.00 | 0.00 | 0.00 | 39 | 1012.6 |
| 20260506201558 | 72 | 282 | 5.0 | 0.0 | 0.00 | 0.00 | 0.00 | 40 | 1012.7 |
| 20260506200109 | 71 | 279 | 5.0 | 0.0 | 0.00 | 0.00 | 0.00 | 40 | 1012.6 |
| 20260506194606 | 71 | 248 | 3.0 | 0.0 | 0.00 | 0.00 | 0.00 | 41 | 1012.7 |
| 20260506193050 | 71 | 285 | 6.0 | 0.0 | 0.00 | 0.00 | 0.00 | 42 | 1012.9 |
| 20260506191549 | 70 | 233 | 4.0 | 0.0 | 0.00 | 0.00 | 0.00 | 41 | 1013.0 |
| 20260506190030 | 70 | 288 | 4.0 | 0.0 | 0.00 | 0.00 | 0.00 | 43 | 1013.1 |
| 20260506184530 | 69 | 218 | 2.0 | 0.0 | 0.00 | 0.00 | 0.00 | 38 | 1013.2 |
| 20260506183011 | 68 | 283 | 3.0 | 0.0 | 0.00 | 0.00 | 0.00 | 42 | 1013.4 |
| 20260506181513 | 69 | 133 | 1.0 | 0.0 | 0.00 | 0.00 | 0.00 | 42 | 1013.5 |
| 20260506180051 | 68 | 143 | 2.0 | 0.0 | 0.00 | 0.00 | 0.00 | 42 | 1013.5 |
| 20260506174548 | 67 | 138 | 2.0 | 0.0 | 0.00 | 0.00 | 0.00 | 41 | 1013.6 |
| 20260506173029 | 66 | 131 | 1.0 | 0.0 | 0.00 | 0.00 | 0.00 | 41 | 1013.6 |
| 20260506171538 | 66 | 128 | 0.0 | 0.0 | 0.00 | 0.00 | 0.00 | 41 | 1013.6 |
| 20260506170008 | 65 | 102 | 1.0 | 0.0 | 0.00 | 0.00 | 0.00 | 42 | 1013.7 |
| 20260506164506 | 63 | 36 | 0.0 | 0.0 | 0.00 | 0.00 | 0.00 | 42 | 1013.9 |
| 20260506163051 | 63 | 36 | 1.0 | 0.0 | 0.00 | 0.00 | 0.00 | 43 | 1014.0 |
| 20260506161550 | 62 | 35 | 1.0 | 0.0 | 0.00 | 0.00 | 0.00 | 43 | 1014.2 |
| 20260506160034 | 61 | 304 | 0.0 | 0.0 | 0.00 | 0.00 | 0.00 | 46 | 1014.1 |
| 20260506154520 | 60 | 304 | 1.0 | 0.0 | 0.00 | 0.00 | 0.00 | 48 | 1014.5 |
| 20260506153100 | 59 | 304 | 0.0 | 0.0 | 0.00 | 0.00 | 0.00 | 48 | 1014.4 |
| 20260506151608 | 58 | 304 | 0.0 | 0.0 | 0.00 | 0.00 | 0.00 | 51 | 1014.4 |
| 20260506150035 | 55 | 304 | 0.0 | 0.0 | 0.00 | 0.00 | 0.00 | 60 | 1014.6 |
| 20260506144534 | 52 | 304 | 0.0 | 0.0 | 0.00 | 0.00 | 0.00 | 66 | 1014.6 |
| 20260506143035 | 49 | 304 | 0.0 | 0.0 | 0.00 | 0.00 | 0.00 | 78 | 1014.7 |
| 20260506141517 | 46 | 304 | 0.0 | 0.0 | 0.00 | 0.00 | 0.00 | 81 | 1014.8 |
| 20260506140111 | 44 | 304 | 0.0 | 0.0 | 0.00 | 0.00 | 0.00 | 81 | 1014.9 |
| 20260506134558 | 42 | 304 | 0.0 | 0.0 | 0.00 | 0.00 | 0.00 | 82 | 1014.9 |
| 20260506133042 | 42 | 304 | 0.0 | 0.0 | 0.00 | 0.00 | 0.00 | 83 | 1014.7 |
| 20260506131538 | 41 | 304 | 0.0 | 0.0 | 0.00 | 0.00 | 0.00 | 84 | 1014.5 |
| 20260506130019 | 40 | 304 | 0.0 | 0.0 | 0.00 | 0.00 | 0.00 | 84 | 1014.5 |
| 20260506124517 | 40 | 304 | 0.0 | 0.0 | 0.00 | 0.00 | 0.00 | 84 | 1014.3 |
| 20260506123058 | 39 | 304 | 0.0 | 0.0 | 0.00 | 0.00 | 0.00 | 83 | 1014.1 |
| 20260506121556 | 39 | 304 | 0.0 | 0.0 | 0.00 | 0.00 | 0.00 | 83 | 1013.9 |
| 20260506120043 | 40 | 304 | 0.0 | 0.0 | 0.00 | 0.00 | 0.00 | 83 | 1013.8 |
| 20260506114545 | 40 | 304 | 0.0 | 0.0 | 0.00 | 0.00 | 0.00 | 82 | 1013.7 |
| 20260506113040 | 40 | 304 | 0.0 | 0.0 | 0.00 | 0.00 | 0.00 | 82 | 1013.7 |
| 20260506111540 | 40 | 304 | 0.0 | 0.0 | 0.00 | 0.00 | 0.00 | 81 | 1013.6 |
| 20260506110046 | 40 | 304 | 0.0 | 0.0 | 0.00 | 0.00 | 0.00 | 81 | 1013.6 |
| 20260506104537 | 40 | 304 | 0.0 | 0.0 | 0.00 | 0.00 | 0.00 | 81 | 1013.6 |
| 20260506103036 | 40 | 304 | 0.0 | 0.0 | 0.00 | 0.00 | 0.00 | 80 | 1013.6 |
| 20260506101548 | 41 | 304 | 0.0 | 0.0 | 0.00 | 0.00 | 0.00 | 80 | 1013.5 |
| 20260506100014 | 41 | 304 | 0.0 | 0.0 | 0.00 | 0.00 | 0.00 | 79 | 1013.3 |
| 20260506094516 | 41 | 304 | 0.0 | 0.0 | 0.00 | 0.00 | 0.00 | 78 | 1013.4 |
| 20260506093103 | 42 | 304 | 0.0 | 0.0 | 0.00 | 0.00 | 0.00 | 77 | 1013.3 |
| 20260506091553 | 42 | 304 | 0.0 | 0.0 | 0.00 | 0.00 | 0.00 | 76 | 1013.3 |
| 20260506090036 | 43 | 304 | 0.0 | 0.0 | 0.00 | 0.00 | 0.00 | 75 | 1013.2 |
| 20260506084533 | 43 | 304 | 0.0 | 0.0 | 0.00 | 0.00 | 0.00 | 78 | 1013.2 |
| 20260506083014 | 43 | 304 | 0.0 | 0.0 | 0.00 | 0.00 | 0.00 | 78 | 1013.0 |
| 20260506081512 | 42 | 304 | 0.0 | 0.0 | 0.00 | 0.00 | 0.00 | 79 | 1012.7 |
| 20260506073038 | 43 | 304 | 0.0 | 0.0 | 0.00 | 0.00 | 0.00 | 78 | 1012.8 |
| 20260506071530 | 44 | 304 | 0.0 | 0.0 | 0.00 | 0.00 | 0.00 | 76 | 1012.6 |
| 20260506061545 | 47 | 304 | 0.0 | 0.0 | 0.00 | 0.00 | 0.00 | 70 | 1012.1 |
| 20260506044535 | 51 | 304 | 0.0 | 0.0 | 0.00 | 0.00 | 0.00 | 66 | 1011.0 |
| 20260506043015 | 52 | 304 | 0.0 | 0.0 | 0.00 | 0.00 | 0.00 | 64 | 1011.0 |
| 20260506041524 | 53 | 304 | 0.0 | 0.0 | 0.00 | 0.00 | 0.00 | 61 | 1010.8 |
| 20260506040108 | 55 | 304 | 0.0 | 0.0 | 0.00 | 0.00 | 0.00 | 58 | 1010.8 |
| 20260506034548 | 57 | 304 | 0.0 | 0.0 | 0.00 | 0.00 | 0.15 | 52 | 1010.6 |
| 20260506033049 | 59 | 304 | 0.0 | 0.0 | 0.00 | 0.00 | 0.15 | 46 | 1010.4 |
| 20260506031531 | 60 | 304 | 0.0 | 0.0 | 0.00 | 0.00 | 0.15 | 44 | 1010.1 |
| 20260506030033 | 61 | 304 | 0.0 | 0.0 | 0.00 | 0.00 | 0.15 | 42 | 1009.8 |
| 20260506024513 | 63 | 304 | 0.0 | 0.0 | 0.00 | 0.00 | 0.15 | 40 | 1009.5 |
| 20260506023012 | 65 | 304 | 0.0 | 0.0 | 0.00 | 0.00 | 0.15 | 37 | 1009.4 |
| 20260506021557 | 66 | 304 | 0.0 | 0.0 | 0.00 | 0.00 | 0.15 | 36 | 1009.3 |
| 20260506020054 | 68 | 304 | 1.0 | 0.0 | 0.00 | 0.00 | 0.15 | 33 | 1009.2 |
| 20260506014545 | 68 | 304 | 2.0 | 0.0 | 0.00 | 0.00 | 0.15 | 33 | 1009.0 |
| 20260506013039 | 68 | 304 | 2.0 | 0.0 | 0.00 | 0.00 | 0.15 | 34 | 1009.0 |
| 20260506011518 | 67 | 304 | 1.0 | 0.0 | 0.00 | 0.00 | 0.15 | 37 | 1008.9 |
| 20260506010024 | 69 | 304 | 1.0 | 0.0 | 0.00 | 0.00 | 0.15 | 38 | 1008.9 |
| 20260506004600 | 68 | 304 | 1.0 | 0.0 | 0.00 | 0.00 | 0.15 | 39 | 1009.0 |
| 20260506003100 | 69 | 304 | 1.0 | 0.0 | 0.00 | 0.00 | 0.15 | 38 | 1008.9 |
| 20260506001604 | 67 | 304 | 0.0 | 0.0 | 0.00 | 0.00 | 0.15 | 39 | 1008.9 |
| 20260506000046 | 66 | 304 | 0.0 | 0.0 | 0.00 | 0.00 | 0.15 | 44 | 1009.1 |
| 20260505234524 | 67 | 304 | 0.0 | 0.0 | 0.00 | 0.00 | 0.15 | 41 | 1009.1 |
| 20260505233123 | 68 | 304 | 0.0 | 0.0 | 0.00 | 0.00 | 0.15 | 39 | 1009.2 |
| 20260505231506 | 69 | 304 | 1.0 | 0.0 | 0.00 | 0.00 | 0.15 | 36 | 1009.2 |
| 20260505230005 | 68 | 304 | 1.0 | 0.0 | 0.00 | 0.00 | 0.15 | 39 | 1009.3 |
| 20260505224549 | 69 | 304 | 2.0 | 0.0 | 0.00 | 0.00 | 0.15 | 35 | 1009.4 |
| 20260505223055 | 69 | 305 | 2.0 | 0.0 | 0.00 | 0.00 | 0.15 | 36 | 1009.5 |
| 20260505221530 | 68 | 305 | 0.0 | 0.0 | 0.00 | 0.00 | 0.15 | 38 | 1009.7 |
| 20260505220037 | 68 | 306 | 1.0 | 0.0 | 0.00 | 0.00 | 0.15 | 34 | 1009.7 |
| 20260505214516 | 68 | 306 | 3.0 | 0.0 | 0.00 | 0.00 | 0.15 | 36 | 1009.7 |
| 20260505213009 | 70 | 303 | 3.0 | 0.0 | 0.00 | 0.00 | 0.15 | 41 | 1009.8 |
| 20260505211558 | 68 | 303 | 3.0 | 0.0 | 0.00 | 0.00 | 0.15 | 37 | 1009.9 |